LYGCI LOWW-LOWI

Flight info

Callsign LYGCI
Flight time 1h 26m
Altitude 12000
Route SOVIL2B/16 SOVIL DCT SITNI DCT BAGSI DCT NANIT NANIT2A
Aircraft C208/L-SDFGR/C

Departure

Time 2026-05-04 17:51
Airport Vienna International Airport (LOWW)

Arrival

Time 2026-05-04 19:17
Airport Innsbruck Airport (LOWI)
Time Latitude Longitude Altitude Speed Heading
2026-05-04 17:24 48.12741 16.53749 607 ft 0 kts 295°
2026-05-04 17:39 48.12688 16.53674 613 ft 14 kts 202°
2026-05-04 17:39 48.12627 16.53693 608 ft 11 kts 133°
2026-05-04 17:39 48.12542 16.53650 608 ft 18 kts 206°
2026-05-04 17:40 48.12422 16.53625 608 ft 14 kts 187°
2026-05-04 17:40 48.12355 16.53756 610 ft 20 kts 117°
2026-05-04 17:40 48.12286 16.53966 611 ft 25 kts 116°
2026-05-04 17:40 48.12208 16.54209 608 ft 25 kts 116°
2026-05-04 17:41 48.12122 16.54472 608 ft 30 kts 116°
2026-05-04 17:41 48.12035 16.54738 608 ft 27 kts 115°
2026-05-04 17:41 48.11967 16.54947 610 ft 24 kts 115°
2026-05-04 17:41 48.11891 16.55184 608 ft 28 kts 115°
2026-05-04 17:42 48.11800 16.55461 614 ft 31 kts 116°
2026-05-04 17:42 48.11712 16.55733 613 ft 30 kts 115°
2026-05-04 17:42 48.11616 16.56029 608 ft 33 kts 114°
2026-05-04 17:42 48.11525 16.56303 617 ft 26 kts 117°
2026-05-04 17:43 48.11440 16.56566 608 ft 30 kts 115°
2026-05-04 17:43 48.11343 16.56861 608 ft 32 kts 115°
2026-05-04 17:43 48.11263 16.57111 610 ft 27 kts 114°
2026-05-04 17:43 48.11255 16.57289 611 ft 20 kts 20°
2026-05-04 17:44 48.11402 16.57397 615 ft 27 kts 27°
2026-05-04 17:44 48.11568 16.57526 612 ft 24 kts 30°
2026-05-04 17:44 48.11750 16.57495 613 ft 31 kts 343°
2026-05-04 17:44 48.11847 16.57614 613 ft 19 kts 73°
2026-05-04 17:45 48.11856 16.57659 608 ft 0 kts 73°
2026-05-04 17:48 48.11858 16.57666 608 ft 4 kts 75°
2026-05-04 17:48 48.11860 16.57742 608 ft 12 kts 99°
2026-05-04 17:48 48.11812 16.57873 613 ft 16 kts 141°
2026-05-04 17:48 48.11770 16.57907 608 ft 0 kts 168°
2026-05-04 17:49 48.11768 16.57907 608 ft 0 kts 167°
2026-05-04 17:49 48.11767 16.57907 608 ft 0 kts 167°
2026-05-04 17:49 48.11718 16.57926 617 ft 24 kts 165°
2026-05-04 17:50 48.11415 16.58054 608 ft 64 kts 162°
2026-05-04 17:50 48.10943 16.58283 720 ft 75 kts 159°
2026-05-04 17:50 48.10427 16.58501 904 ft 79 kts 161°
2026-05-04 17:50 48.09855 16.58736 1076 ft 89 kts 162°
2026-05-04 17:51 48.09249 16.58987 1277 ft 92 kts 163°
2026-05-04 17:51 48.08632 16.59245 1487 ft 92 kts 165°
2026-05-04 17:51 48.08013 16.59498 1703 ft 93 kts 166°
2026-05-04 17:51 48.07375 16.59764 1925 ft 97 kts 167°
2026-05-04 17:52 48.06703 16.59989 2135 ft 101 kts 181°
2026-05-04 17:52 48.06064 16.59507 2348 ft 111 kts 219°
2026-05-04 17:52 48.05575 16.58586 2555 ft 114 kts 223°
2026-05-04 17:52 48.05062 16.57661 2772 ft 116 kts 224°
2026-05-04 17:53 48.04555 16.56735 3027 ft 114 kts 224°
2026-05-04 17:53 48.04058 16.55827 3274 ft 112 kts 225°
2026-05-04 17:53 48.03566 16.54933 3517 ft 111 kts 224°
2026-05-04 17:53 48.03081 16.54052 3759 ft 109 kts 225°
2026-05-04 17:54 48.02599 16.53178 3998 ft 108 kts 225°
2026-05-04 17:54 48.02121 16.52310 4242 ft 108 kts 225°
2026-05-04 17:54 48.01642 16.51441 4491 ft 108 kts 226°
2026-05-04 17:54 48.01165 16.50579 4733 ft 108 kts 226°
2026-05-04 17:55 48.00691 16.49734 4970 ft 105 kts 226°
2026-05-04 17:55 48.00230 16.48911 5205 ft 102 kts 226°
2026-05-04 17:55 47.99775 16.48112 5437 ft 100 kts 226°
2026-05-04 17:55 47.99316 16.47337 5670 ft 99 kts 226°
2026-05-04 17:56 47.98860 16.46571 5906 ft 98 kts 226°
2026-05-04 17:56 47.98384 16.45782 6001 ft 110 kts 226°
2026-05-04 17:56 47.97831 16.44873 6017 ft 126 kts 226°
2026-05-04 17:56 47.97209 16.43854 6018 ft 139 kts 227°
2026-05-04 17:57 47.96531 16.42761 6010 ft 147 kts 228°
2026-05-04 17:57 47.96176 16.41330 6010 ft 157 kts 269°
2026-05-04 17:57 47.96503 16.39721 6010 ft 165 kts 282°
2026-05-04 17:57 47.96726 16.38046 6008 ft 165 kts 272°
2026-05-04 17:58 47.96867 16.36345 6011 ft 165 kts 272°
2026-05-04 17:58 47.97005 16.34671 6008 ft 165 kts 272°
2026-05-04 17:58 47.97145 16.32974 6009 ft 166 kts 272°
2026-05-04 17:58 47.97287 16.31268 6004 ft 167 kts 272°
2026-05-04 17:59 47.97427 16.29570 6001 ft 166 kts 272°
2026-05-04 17:59 47.97564 16.27879 6077 ft 161 kts 272°
2026-05-04 17:59 47.97821 16.24768 6455 ft 147 kts 272°
2026-05-04 18:00 47.97940 16.23300 6677 ft 140 kts 272°
2026-05-04 18:00 47.98051 16.21891 6898 ft 135 kts 271°
2026-05-04 18:00 47.98153 16.20525 7112 ft 132 kts 271°
2026-05-04 18:00 47.98262 16.19182 7342 ft 130 kts 272°
2026-05-04 18:01 47.98369 16.17857 7580 ft 127 kts 271°
2026-05-04 18:01 47.98488 16.16550 7815 ft 127 kts 271°
2026-05-04 18:01 47.98596 16.15239 8058 ft 127 kts 271°
2026-05-04 18:02 47.98807 16.12642 8550 ft 125 kts 270°
2026-05-04 18:02 47.98911 16.11361 8797 ft 124 kts 270°
2026-05-04 18:02 47.99012 16.10086 9044 ft 123 kts 270°
2026-05-04 18:02 47.99113 16.08827 9294 ft 121 kts 270°
2026-05-04 18:03 47.99216 16.07583 9537 ft 120 kts 271°
2026-05-04 18:03 47.99317 16.06358 9783 ft 118 kts 270°
2026-05-04 18:03 47.99405 16.05141 10014 ft 117 kts 270°
2026-05-04 18:03 47.99504 16.03946 10240 ft 115 kts 269°
2026-05-04 18:04 47.99596 16.02773 10477 ft 113 kts 269°
2026-05-04 18:04 47.99691 16.01623 10704 ft 110 kts 269°
2026-05-04 18:04 47.99869 15.99389 11152 ft 106 kts 270°
2026-05-04 18:05 47.99954 15.98311 11371 ft 103 kts 269°
2026-05-04 18:05 48.00037 15.97276 11594 ft 98 kts 269°
2026-05-04 18:05 48.00113 15.96299 11805 ft 92 kts 268°
2026-05-04 18:05 48.00185 15.95374 11975 ft 88 kts 266°
2026-05-04 18:06 48.00343 15.93351 12026 ft 112 kts 270°
2026-05-04 18:06 48.00440 15.92118 12096 ft 124 kts 270°
2026-05-04 18:06 48.00540 15.90788 12171 ft 135 kts 269°
2026-05-04 18:07 48.00641 15.89314 12125 ft 151 kts 272°
2026-05-04 18:07 48.00785 15.87679 12037 ft 166 kts 274°
2026-05-04 18:07 48.00935 15.85934 12013 ft 172 kts 272°
2026-05-04 18:07 48.01077 15.84134 12002 ft 176 kts 272°
2026-05-04 18:08 48.01169 15.82922 12007 ft 178 kts 273°
2026-05-04 18:08 48.01316 15.81070 12007 ft 181 kts 273°
2026-05-04 18:08 48.01461 15.79195 12004 ft 182 kts 273°
2026-05-04 18:08 48.01610 15.77311 12012 ft 183 kts 272°
2026-05-04 18:09 48.01902 15.73533 12001 ft 183 kts 272°
2026-05-04 18:09 48.02193 15.69754 11998 ft 183 kts 273°
2026-05-04 18:10 48.02338 15.67872 11997 ft 182 kts 273°
2026-05-04 18:10 48.02484 15.65994 11996 ft 182 kts 272°
2026-05-04 18:10 48.02627 15.64121 11987 ft 181 kts 272°
2026-05-04 18:10 48.02769 15.62253 11983 ft 181 kts 272°
2026-05-04 18:11 48.02909 15.60387 11988 ft 182 kts 273°
2026-05-04 18:11 48.03052 15.58514 11982 ft 181 kts 273°
2026-05-04 18:11 48.03196 15.56635 11984 ft 181 kts 273°
2026-05-04 18:11 48.03338 15.54774 11984 ft 179 kts 272°
2026-05-04 18:12 48.03475 15.52927 11981 ft 179 kts 272°
2026-05-04 18:12 48.03615 15.51085 11984 ft 177 kts 272°
2026-05-04 18:12 48.03751 15.49251 11984 ft 179 kts 273°
2026-05-04 18:12 48.03894 15.47387 11994 ft 181 kts 273°
2026-05-04 18:13 48.04035 15.45506 11991 ft 183 kts 273°
2026-05-04 18:13 48.04176 15.43613 11991 ft 183 kts 273°
2026-05-04 18:13 48.04460 15.39813 11998 ft 184 kts 273°
2026-05-04 18:14 48.04604 15.37909 11997 ft 184 kts 272°
2026-05-04 18:14 48.04652 15.36012 11997 ft 181 kts 266°
2026-05-04 18:14 48.04680 15.34130 11994 ft 181 kts 266°
2026-05-04 18:15 48.04744 15.30402 11982 ft 178 kts 266°
2026-05-04 18:15 48.04805 15.26691 11976 ft 179 kts 267°
2026-05-04 18:15 48.04835 15.24827 11977 ft 180 kts 266°
2026-05-04 18:16 48.04864 15.22958 11974 ft 179 kts 266°
2026-05-04 18:16 48.04893 15.21131 11975 ft 177 kts 266°
2026-05-04 18:16 48.04918 15.19289 11974 ft 177 kts 266°
2026-05-04 18:17 48.04974 15.15587 11975 ft 177 kts 268°
2026-05-04 18:17 48.05002 15.13770 11975 ft 178 kts 268°
2026-05-04 18:17 48.05057 15.10066 11968 ft 178 kts 268°
2026-05-04 18:18 48.05085 15.08214 11969 ft 178 kts 266°
2026-05-04 18:18 48.05110 15.06368 11970 ft 177 kts 267°
2026-05-04 18:18 48.05135 15.04523 11981 ft 178 kts 267°
2026-05-04 18:18 48.05162 15.02670 11977 ft 178 kts 269°
2026-05-04 18:19 48.05211 14.98965 11973 ft 178 kts 269°
2026-05-04 18:19 48.05236 14.97113 11973 ft 178 kts 269°
2026-05-04 18:19 48.05261 14.95261 11968 ft 178 kts 269°
2026-05-04 18:20 48.05286 14.93408 11968 ft 178 kts 269°
2026-05-04 18:20 48.05309 14.91555 11968 ft 179 kts 268°
2026-05-04 18:20 48.05333 14.89700 11968 ft 179 kts 269°
2026-05-04 18:20 48.05357 14.87831 11969 ft 180 kts 269°
2026-05-04 18:21 48.05380 14.85962 11968 ft 179 kts 268°
2026-05-04 18:21 48.05403 14.84102 11967 ft 179 kts 269°
2026-05-04 18:21 48.05424 14.82245 11967 ft 179 kts 268°
2026-05-04 18:21 48.05438 14.80392 11967 ft 179 kts 268°
2026-05-04 18:22 48.05454 14.78534 11966 ft 179 kts 268°
2026-05-04 18:22 48.05469 14.76679 11957 ft 179 kts 268°
2026-05-04 18:22 48.05484 14.74820 11957 ft 179 kts 268°
2026-05-04 18:22 48.05499 14.72961 11956 ft 179 kts 268°
2026-05-04 18:23 48.05514 14.71105 11954 ft 179 kts 268°
2026-05-04 18:23 48.05529 14.69248 11954 ft 179 kts 268°
2026-05-04 18:23 48.05543 14.67392 11954 ft 179 kts 268°
2026-05-04 18:23 48.05557 14.65534 11953 ft 179 kts 268°
2026-05-04 18:24 48.05570 14.63680 11955 ft 179 kts 268°
2026-05-04 18:24 48.05584 14.61828 11955 ft 178 kts 268°
2026-05-04 18:24 48.05595 14.59974 11953 ft 178 kts 268°
2026-05-04 18:24 48.05610 14.58114 11952 ft 179 kts 268°
2026-05-04 18:25 48.05622 14.56256 11952 ft 179 kts 268°
2026-05-04 18:25 48.05635 14.54396 11952 ft 179 kts 268°
2026-05-04 18:25 48.05646 14.52531 11952 ft 179 kts 268°
2026-05-04 18:25 48.05658 14.50694 11951 ft 179 kts 268°
2026-05-04 18:26 48.05669 14.48826 11951 ft 179 kts 268°
2026-05-04 18:26 48.05680 14.46938 11951 ft 179 kts 268°
2026-05-04 18:26 48.05691 14.45102 11951 ft 179 kts 268°
2026-05-04 18:26 48.05701 14.43237 11950 ft 179 kts 268°
2026-05-04 18:27 48.05711 14.41370 11951 ft 179 kts 268°
2026-05-04 18:27 48.05720 14.39508 11951 ft 179 kts 268°
2026-05-04 18:27 48.05730 14.37644 11951 ft 179 kts 268°
2026-05-04 18:27 48.05739 14.35779 11952 ft 180 kts 268°
2026-05-04 18:28 48.05748 14.33915 11950 ft 180 kts 268°
2026-05-04 18:28 48.05758 14.32044 11951 ft 180 kts 268°
2026-05-04 18:28 48.05766 14.30170 11951 ft 180 kts 268°
2026-05-04 18:28 48.05571 14.28354 11952 ft 177 kts 246°
2026-05-04 18:29 48.05017 14.26715 11955 ft 177 kts 242°
2026-05-04 18:29 48.04477 14.25068 11956 ft 177 kts 243°
2026-05-04 18:29 48.03936 14.23416 11955 ft 177 kts 243°
2026-05-04 18:29 48.03391 14.21765 11956 ft 177 kts 243°
2026-05-04 18:30 48.02301 14.18472 11953 ft 177 kts 242°
2026-05-04 18:30 48.01758 14.16826 11953 ft 177 kts 243°
2026-05-04 18:30 48.01219 14.15198 11954 ft 177 kts 243°
2026-05-04 18:31 48.00674 14.13551 11956 ft 177 kts 242°
2026-05-04 18:31 48.00129 14.11910 11955 ft 176 kts 242°
2026-05-04 18:31 47.99586 14.10271 11953 ft 176 kts 242°
2026-05-04 18:31 47.99044 14.08641 11952 ft 175 kts 242°
2026-05-04 18:32 47.98504 14.07013 11951 ft 175 kts 242°
2026-05-04 18:32 47.97962 14.05385 11952 ft 175 kts 242°
2026-05-04 18:32 47.97421 14.03758 11956 ft 175 kts 242°
2026-05-04 18:32 47.96881 14.02135 11955 ft 175 kts 242°
2026-05-04 18:33 47.96341 14.00512 11957 ft 174 kts 242°
2026-05-04 18:33 47.95801 13.98890 11956 ft 174 kts 242°
2026-05-04 18:33 47.95260 13.97269 11956 ft 174 kts 242°
2026-05-04 18:33 47.94720 13.95649 11955 ft 174 kts 242°
2026-05-04 18:34 47.94179 13.94030 11959 ft 175 kts 242°
2026-05-04 18:34 47.93637 13.92408 11958 ft 174 kts 242°
2026-05-04 18:34 47.93098 13.90793 11956 ft 173 kts 242°
2026-05-04 18:34 47.92562 13.89190 11956 ft 173 kts 242°
2026-05-04 18:35 47.92024 13.87583 11956 ft 173 kts 242°
2026-05-04 18:35 47.91484 13.85972 11955 ft 174 kts 242°
2026-05-04 18:35 47.90944 13.84359 11955 ft 174 kts 242°
2026-05-04 18:35 47.90403 13.82746 11956 ft 174 kts 242°
2026-05-04 18:36 47.89872 13.81163 11968 ft 173 kts 242°
2026-05-04 18:36 47.89326 13.79537 11967 ft 174 kts 242°
2026-05-04 18:36 47.88792 13.77948 11967 ft 174 kts 242°
2026-05-04 18:36 47.88252 13.76337 11968 ft 174 kts 242°
2026-05-04 18:37 47.87709 13.74729 11966 ft 174 kts 242°
2026-05-04 18:37 47.87165 13.73110 11966 ft 175 kts 242°
2026-05-04 18:37 47.86621 13.71494 11963 ft 174 kts 242°
2026-05-04 18:37 47.86078 13.69881 11965 ft 174 kts 242°
2026-05-04 18:38 47.85534 13.68269 11967 ft 174 kts 242°
2026-05-04 18:38 47.84992 13.66661 11966 ft 174 kts 242°
2026-05-04 18:38 47.84450 13.65056 11964 ft 173 kts 242°
2026-05-04 18:38 47.83910 13.63459 11963 ft 172 kts 242°
2026-05-04 18:39 47.83375 13.61873 11970 ft 170 kts 241°
2026-05-04 18:39 47.82847 13.60313 11973 ft 169 kts 241°
2026-05-04 18:39 47.82316 13.58750 11969 ft 170 kts 241°
2026-05-04 18:39 47.81787 13.57182 11972 ft 169 kts 241°
2026-05-04 18:40 47.81258 13.55619 11977 ft 170 kts 241°
2026-05-04 18:40 47.80722 13.54044 11977 ft 171 kts 241°
2026-05-04 18:40 47.80188 13.52466 11977 ft 171 kts 241°
2026-05-04 18:40 47.79652 13.50887 11978 ft 171 kts 241°
2026-05-04 18:41 47.79115 13.49307 11981 ft 171 kts 241°
2026-05-04 18:41 47.78578 13.47729 11981 ft 170 kts 241°
2026-05-04 18:41 47.78042 13.46153 11980 ft 171 kts 241°
2026-05-04 18:41 47.77503 13.44566 11988 ft 174 kts 241°
2026-05-04 18:42 47.76954 13.42956 11983 ft 175 kts 241°
2026-05-04 18:42 47.76406 13.41343 11985 ft 175 kts 241°
2026-05-04 18:42 47.75855 13.39727 11986 ft 175 kts 241°
2026-05-04 18:42 47.75304 13.38112 11984 ft 175 kts 241°
2026-05-04 18:43 47.74756 13.36505 11993 ft 174 kts 241°
2026-05-04 18:43 47.74206 13.34897 11988 ft 174 kts 241°
2026-05-04 18:43 47.73659 13.33290 11990 ft 174 kts 241°
2026-05-04 18:43 47.73111 13.31691 11989 ft 174 kts 241°
2026-05-04 18:44 47.72562 13.30087 11984 ft 174 kts 241°
2026-05-04 18:44 47.72385 13.29572 11984 ft 174 kts 241°
2026-05-04 18:44 47.71466 13.26889 11980 ft 173 kts 241°
2026-05-04 18:44 47.70921 13.25298 11982 ft 172 kts 241°
2026-05-04 18:45 47.70379 13.23719 11991 ft 172 kts 241°
2026-05-04 18:45 47.69832 13.22130 11990 ft 173 kts 241°
2026-05-04 18:45 47.69289 13.20549 11982 ft 168 kts 241°
2026-05-04 18:45 47.68769 13.19032 11994 ft 164 kts 241°
2026-05-04 18:46 47.68246 13.17511 11991 ft 167 kts 240°
2026-05-04 18:46 47.67714 13.15962 11988 ft 169 kts 240°
2026-05-04 18:46 47.67176 13.14403 11988 ft 170 kts 240°
2026-05-04 18:46 47.66634 13.12831 11989 ft 172 kts 240°
2026-05-04 18:47 47.66090 13.11252 11983 ft 172 kts 240°
2026-05-04 18:47 47.65546 13.09674 11987 ft 172 kts 240°
2026-05-04 18:47 47.65003 13.08103 11986 ft 170 kts 240°
2026-05-04 18:47 47.64467 13.06544 11988 ft 170 kts 240°
2026-05-04 18:48 47.63928 13.04985 11991 ft 170 kts 240°
2026-05-04 18:48 47.63387 13.03423 11989 ft 170 kts 240°
2026-05-04 18:48 47.62850 13.01866 11991 ft 170 kts 240°
2026-05-04 18:48 47.62311 13.00307 11991 ft 170 kts 240°
2026-05-04 18:49 47.61770 12.98745 11989 ft 171 kts 240°
2026-05-04 18:49 47.61412 12.97710 11988 ft 171 kts 240°
2026-05-04 18:49 47.60867 12.96145 11989 ft 170 kts 240°
2026-05-04 18:49 47.60327 12.94581 11990 ft 171 kts 240°
2026-05-04 18:50 47.59783 12.93022 11991 ft 170 kts 240°
2026-05-04 18:50 47.59242 12.91460 11990 ft 170 kts 240°
2026-05-04 18:50 47.58701 12.89901 11991 ft 170 kts 240°
2026-05-04 18:50 47.58160 12.88344 11998 ft 170 kts 240°
2026-05-04 18:51 47.57625 12.86782 11997 ft 170 kts 240°
2026-05-04 18:51 47.57079 12.85227 11999 ft 170 kts 240°
2026-05-04 18:51 47.56528 12.83671 11999 ft 171 kts 240°
2026-05-04 18:51 47.55981 12.82099 11999 ft 173 kts 240°
2026-05-04 18:52 47.55430 12.80517 11999 ft 173 kts 240°
2026-05-04 18:52 47.54864 12.78945 12003 ft 173 kts 239°
2026-05-04 18:52 47.54278 12.77392 12002 ft 173 kts 238°
2026-05-04 18:52 47.53677 12.75856 12003 ft 172 kts 237°
2026-05-04 18:53 47.53054 12.74337 12006 ft 173 kts 236°
2026-05-04 18:53 47.52412 12.72833 12000 ft 172 kts 236°
2026-05-04 18:53 47.51998 12.71183 11993 ft 174 kts 259°
2026-05-04 18:53 47.51788 12.69431 12001 ft 173 kts 253°
2026-05-04 18:54 47.51453 12.67733 12008 ft 171 kts 250°
2026-05-04 18:54 47.51092 12.66054 12007 ft 171 kts 250°
2026-05-04 18:54 47.50730 12.64364 11992 ft 174 kts 250°
2026-05-04 18:54 47.50364 12.62660 11994 ft 174 kts 250°
2026-05-04 18:55 47.49997 12.60950 11998 ft 175 kts 250°
2026-05-04 18:55 47.49262 12.57522 11998 ft 174 kts 249°
2026-05-04 18:55 47.48902 12.55851 11995 ft 172 kts 249°
2026-05-04 18:56 47.48537 12.54158 11991 ft 171 kts 249°
2026-05-04 18:56 47.48181 12.52512 11989 ft 170 kts 249°
2026-05-04 18:56 47.47822 12.50850 11990 ft 169 kts 249°
2026-05-04 18:56 47.47464 12.49194 11988 ft 169 kts 249°
2026-05-04 18:57 47.47103 12.47521 11986 ft 168 kts 249°
2026-05-04 18:57 47.46753 12.45900 11983 ft 168 kts 249°
2026-05-04 18:57 47.46398 12.44260 11982 ft 167 kts 249°
2026-05-04 18:57 47.46045 12.42628 11999 ft 167 kts 249°
2026-05-04 18:58 47.45690 12.40991 12002 ft 169 kts 249°
2026-05-04 18:58 47.45329 12.39330 12002 ft 170 kts 249°
2026-05-04 18:58 47.44969 12.37667 11999 ft 169 kts 249°
2026-05-04 18:58 47.44615 12.36029 12006 ft 165 kts 248°
2026-05-04 18:59 47.44259 12.34408 12004 ft 166 kts 249°
2026-05-04 18:59 47.43906 12.32788 12005 ft 166 kts 249°
2026-05-04 18:59 47.43553 12.31165 12001 ft 166 kts 249°
2026-05-04 18:59 47.43203 12.29548 11995 ft 165 kts 248°
2026-05-04 19:00 47.42854 12.27961 12007 ft 161 kts 248°
2026-05-04 19:00 47.42507 12.26371 12003 ft 164 kts 249°
2026-05-04 19:00 47.42164 12.24790 12007 ft 160 kts 249°
2026-05-04 19:00 47.41820 12.23222 12010 ft 162 kts 248°
2026-05-04 19:01 47.41460 12.21588 11809 ft 169 kts 249°
2026-05-04 19:01 47.41097 12.19932 11603 ft 170 kts 249°
2026-05-04 19:01 47.40736 12.18279 11409 ft 168 kts 248°
2026-05-04 19:01 47.40381 12.16656 11225 ft 165 kts 248°
2026-05-04 19:02 47.40024 12.15045 11010 ft 166 kts 248°
2026-05-04 19:02 47.39666 12.13412 10768 ft 168 kts 248°
2026-05-04 19:02 47.39308 12.11776 10521 ft 167 kts 248°
2026-05-04 19:02 47.38952 12.10163 10366 ft 163 kts 248°
2026-05-04 19:03 47.38607 12.08598 10239 ft 158 kts 248°
2026-05-04 19:03 47.38274 12.07069 10116 ft 156 kts 247°
2026-05-04 19:03 47.37932 12.05535 10002 ft 158 kts 248°
2026-05-04 19:03 47.37593 12.03997 9871 ft 157 kts 247°
2026-05-04 19:04 47.37257 12.02478 9730 ft 153 kts 246°
2026-05-04 19:04 47.36934 12.01018 9559 ft 147 kts 246°
2026-05-04 19:04 47.36630 11.99630 9513 ft 140 kts 246°
2026-05-04 19:04 47.36321 11.98242 9506 ft 144 kts 245°
2026-05-04 19:05 47.36009 11.96843 9502 ft 143 kts 245°
2026-05-04 19:05 47.35561 11.95580 9501 ft 138 kts 231°
2026-05-04 19:05 47.35040 11.94384 9494 ft 138 kts 233°
2026-05-04 19:05 47.34591 11.93161 9515 ft 137 kts 246°
2026-05-04 19:06 47.34334 11.91802 9518 ft 138 kts 248°
2026-05-04 19:06 47.34103 11.90422 9521 ft 139 kts 249°
2026-05-04 19:06 47.33878 11.89026 9518 ft 141 kts 251°
2026-05-04 19:06 47.33674 11.87595 9521 ft 144 kts 251°
2026-05-04 19:07 47.33464 11.86141 9451 ft 148 kts 251°
2026-05-04 19:07 47.33244 11.84629 9327 ft 154 kts 251°
2026-05-04 19:07 47.33006 11.83029 9213 ft 164 kts 252°
2026-05-04 19:07 47.32771 11.81375 9088 ft 165 kts 252°
2026-05-04 19:08 47.32522 11.79710 8979 ft 168 kts 252°
2026-05-04 19:08 47.32278 11.77986 8910 ft 175 kts 253°
2026-05-04 19:08 47.32005 11.76182 8655 ft 186 kts 252°
2026-05-04 19:08 47.31731 11.74290 8337 ft 184 kts 255°
2026-05-04 19:09 47.31495 11.72563 8031 ft 161 kts 252°
2026-05-04 19:09 47.31261 11.71054 7774 ft 152 kts 251°
2026-05-04 19:09 47.31005 11.69400 7526 ft 178 kts 253°
2026-05-04 19:09 47.30734 11.67554 7228 ft 190 kts 254°
2026-05-04 19:10 47.30469 11.65673 6918 ft 178 kts 254°
2026-05-04 19:10 47.30225 11.63944 6636 ft 170 kts 254°
2026-05-04 19:10 47.29974 11.62251 6366 ft 167 kts 253°
2026-05-04 19:10 47.29739 11.60618 6089 ft 160 kts 252°
2026-05-04 19:11 47.29504 11.59035 5833 ft 157 kts 253°
2026-05-04 19:11 47.29275 11.57467 5572 ft 156 kts 254°
2026-05-04 19:11 47.29049 11.55902 5314 ft 156 kts 255°
2026-05-04 19:11 47.28820 11.54356 5059 ft 154 kts 255°
2026-05-04 19:12 47.28599 11.52823 4806 ft 153 kts 255°
2026-05-04 19:12 47.28148 11.49769 4294 ft 153 kts 256°
2026-05-04 19:12 47.27937 11.48258 4040 ft 146 kts 255°
2026-05-04 19:13 47.27733 11.46882 3822 ft 130 kts 255°
2026-05-04 19:13 47.27550 11.45651 3617 ft 112 kts 255°
2026-05-04 19:13 47.27405 11.44651 3449 ft 89 kts 256°
2026-05-04 19:13 47.27281 11.43828 3303 ft 77 kts 254°
2026-05-04 19:14 47.27174 11.43087 3143 ft 72 kts 252°
2026-05-04 19:14 47.27058 11.42383 2987 ft 73 kts 248°
2026-05-04 19:14 47.26900 11.41619 2890 ft 81 kts 248°
2026-05-04 19:14 47.26767 11.40794 2707 ft 85 kts 253°
2026-05-04 19:15 47.26657 11.39956 2566 ft 82 kts 259°
2026-05-04 19:15 47.26567 11.39124 2426 ft 84 kts 253°
2026-05-04 19:15 47.26453 11.38273 2268 ft 85 kts 253°
2026-05-04 19:15 47.26338 11.37400 2148 ft 90 kts 254°
2026-05-04 19:16 47.26246 11.36488 2013 ft 89 kts 257°
2026-05-04 19:16 47.26149 11.35596 1926 ft 88 kts 255°
2026-05-04 19:16 47.26059 11.34776 1906 ft 71 kts 255°
2026-05-04 19:16 47.25990 11.34148 1905 ft 55 kts 263°
2026-05-04 19:17 47.25949 11.33739 1902 ft 21 kts 258°
2026-05-04 19:17 47.25856 11.33787 1906 ft 22 kts 127°
2026-05-04 19:17 47.25776 11.33975 1900 ft 24 kts 105°
2026-05-04 19:17 47.25784 11.34183 1902 ft 24 kts 82°
2026-05-04 19:18 47.25815 11.34461 1905 ft 32 kts 81°
2026-05-04 19:18 47.25848 11.34781 1905 ft 22 kts 81°
2026-05-04 19:18 47.25875 11.35041 1905 ft 30 kts 81°
2026-05-04 19:18 47.25897 11.35272 1905 ft 9 kts 131°
2026-05-04 19:19 47.25838 11.35283 1903 ft 2 kts 170°
2026-05-04 19:19 47.25837 11.35283 1905 ft 0 kts 170°
2026-05-04 19:19 47.25849 11.35287 1905 ft 0 kts 171°